Location: Agadir Mansour Mhndou
(31.2424°N, 8.7730°W)
Time: 19:57:13
(UTC+00:00)

CZ-4 R/B - Pass Details

Date: 16 October 2021
Orbit: 530 x 596 km, 97.8° (Epoch: 08 December)

Event Time Altitude Azimuth Distance (km) Brightness Sun altitude
Exits shadow 19:37:09 12° 172° (S) 1,658 3.6 -21.1°
Maximum altitude 19:40:42 79° 259° (WSW) 564 1.3 -21.8°
Drops below altitude 10° 19:44:42 10° 346° (NNW) 1,846 4.2 -22.7°
Sets 19:46:52 0° 347° (NNW) 2,757 5.1 -23.2°
